Flag for U.S.A. Weather past 2 weeks in Wichita, Kansas, U.S.A.

Now
56 °F

Fog.


Feels Like: 55 °F
Forecast: 54 / 67 °F
Wind: 6 mph from Southeast

Location: Wichita Mid-Continent Airport

Current Time: May 23, 2015 at 7:04:21 AM

Latest Report: May 23, 2015 at 5:53 AM


Visibility: 4 mi

Pressure: 30.14 "Hg

Humidity: 97%

Dew point: 55 °F

Location of WichitaLocation

Historic Weather in Wichita — Graph

°F

Wichita temperature yesterday

Maximum temperature yesterday: 62 °F (at 5:53 PM)
Minimum temperature yesterday: 52 °F (at 1:53 AM)
Average temperature yesterday: 56 °F

Past Weeks' High & Low Weather Summary

 TemperatureHumidityPressure
High80 °F (May 15, 4:53 PM)97% (May 14, 12:53 AM)30.36 "Hg (May 14, 12:53 AM)
Low42 °F (May 12, 6:53 AM)29% (May 11, 6:53 PM)29.63 "Hg (May 17, 12:53 AM)
Average61 °F73%30.02 "Hg
* Reported May 8 5:53 AM — May 23 5:53 AM, Wichita, Weather by CustomWeather, © 2015

Note: Actual official high and low records may vary slightly from our data, if they occured in-between our weather recording intervals... More about our weather records

Advertising

Wichita weather history for previous 24 hours

 ConditionsComfort  
Time TempWeatherWind HumidityBarometerVisibility
5:53 AM
Sat, May 23
56 °FFog.6 mph97%30.14 "Hg4 mi
4:53 AM56 °FFog.9 mph97%30.14 "Hg3 mi
3:53 AM56 °FFog.7 mph93%30.13 "Hg4 mi
2:53 AM55 °FFog.8 mph96%30.14 "Hg3 mi
1:53 AM55 °FFog.8 mph96%30.15 "Hg2 mi
12:53 AM55 °FFog.8 mph93%30.16 "Hg2 mi
11:53 PM
Fri, May 22
55 °FFog.10 mph90%30.15 "Hg6 mi
10:53 PM55 °FMostly cloudy.13 mph90%30.15 "Hg10 mi
9:53 PM55 °FLight rain. Fog.13 mph93%30.14 "Hg2 mi
9:02 PM56 °FDrizzle. Fog.8 mph93%30.15 "Hg2 mi
9:00 PM56 °FDrizzle. Fog.9 mph93%30.15 "Hg2 mi
7:53 PM60 °FMostly cloudy.14 mph75%30.11 "Hg10 mi
6:53 PM61 °FMostly cloudy.14 mph72%30.11 "Hg10 mi
5:53 PM62 °FOvercast.13 mph75%30.13 "Hg10 mi
4:53 PM60 °FCloudy.12 mph80%30.14 "Hg10 mi
3:53 PM60 °FMostly cloudy.12 mph83%30.16 "Hg10 mi
2:53 PM59 °FMostly cloudy.10 mph87%30.17 "Hg10 mi
1:53 PM57 °FFog.13 mph90%30.18 "Hg5 mi
1:04 PM56 °FLight rain. Fog.14 mph93%30.20 "Hg2 mi
12:53 PM56 °FDrizzle. Fog.12 mph90%30.19 "Hg2 mi
11:53 AM55 °FLow clouds.8 mph90%30.20 "Hg8 mi
10:53 AM54 °FLight rain. Mostly cloudy.8 mph90%30.21 "Hg9 mi
9:53 AM53 °FLight rain. Mostly cloudy.16 mph86%30.18 "Hg10 mi
8:53 AM52 °FRain. Fog.9 mph86%30.22 "Hg3 mi
7:53 AM52 °FRain. Fog.8 mph86%30.22 "Hg5 mi
Weather by CustomWeather, © 2015

See weather overviewHow to use our weather pages